Regional Weather Roundup
Issued by NWS

Home | Current Version | Previous Version | Graphics & Text | Print | Product List | Glossary Off
Versions: 1 2 3 4 5 6 7 8 9 10 11 12 13 14 15 16 17 18 19 20 21 22 23 24 25 26 27 28 29 30 31 32 33 34 35 36 37 38 39 40 41 42 43 44 45 46 47 48 49 50

000
ASUS43 KMKX 071900
RWRWI

WISCONSIN REGIONAL WEATHER ROUNDUP
NATIONAL WEATHER SERVICE MILWAUKEE/SULLIVAN WI
200 PM CDT TUE JUL 07 2015

NOTE: "FAIR" INDICATES FEW OR NO CLOUDS BELOW 12,000 FEET WITH NO
SIGNIFICANT WEATHER AND/OR OBSTRUCTIONS TO VISIBILITY.

WIZ001-002-006>008-014>016-023>028-072000-
NORTHWEST WISCONSIN

CITY           SKY/WX    TMP DP  RH WIND       PRES   REMARKS
SUPERIOR ARPT  MOSUNNY   69  49  49 SW5       30.12F
ASHLAND        SUNNY     68  48  48 VRB5      30.13F
HAYWARD        MOSUNNY   66  43  43 E5        30.14S
SIREN          MOSUNNY   67  43  40 NE5       30.14F
CUMBERLAND     MOSUNNY   63  45  51 N5        30.14S
RICE LAKE      MOSUNNY   65  46  49 N13       30.15F
CHETEK         MOSUNNY   66  49  53 NW6       30.12F
LADYSMITH      MOSUNNY   67  47  47 N7        30.14F
EAU CLAIRE     MOSUNNY   69  47  45 NE9       30.12S
MENOMONIE      SUNNY     67  46  47 N7        30.13F
NEW RICHMOND   PTSUNNY   65  47  51 NE5       30.15F
OSCEOLA        CLOUDY    65  46  50 NE5       30.17F
$$

WIZ003>005-009-010-017-018-072000-
NORTH CENTRAL WISCONSIN

CITY           SKY/WX    TMP DP  RH WIND       PRES   REMARKS
MANITOWISH WTR PTSUNNY   63  46  54 N9        30.12S
ARBOR VITAE    MOSUNNY   63  45  51 NE8G20    30.11S
WOODRUFF       MOSUNNY   63  45  51 NE8G20    30.11S
RHINELANDER    CLOUDY    63  44  50 VRB6      30.11S
EAGLE RIVER    PTSUNNY   63  43  48 N13G18    30.10S
LAND O LAKES   PTSUNNY   62  43  49 N10G18    30.12S
PHILLIPS       PTSUNNY   64  46  50 N8G17     30.12S
TOMAHAWK       CLOUDY    62  45  53 N7        30.12S
MEDFORD        PTSUNNY   64  46  52 N8        30.11S
MERRILL        PTSUNNY   65  47  53 N7G17     30.10F
$$

WIZ029-030-035-036-043>047-072000-
CENTRAL WISCONSIN

CITY           SKY/WX    TMP DP  RH WIND       PRES   REMARKS
WAUSAU         MOSUNNY   67  45  45 N9G20     30.07F
MOSINEE        PTSUNNY   64  46  52 N10       30.10F
MARSHFIELD     PTSUNNY   66  46  48 N7G16     30.10F
STEVENS POINT  PTSUNNY   63  45  51 N12       30.09F
WAUPACA        CLOUDY    68  46  45 NW9       30.08S
WAUTOMA        NOT AVBL
WISC RAPIDS    MOSUNNY   68  45  43 N12       30.10F
CAMP DOUGLAS   NOT AVBL
$$

WIZ011>013-019>022-031-037>040-048>050-072000-
NORTHEAST WISCONSIN

CITY           SKY/WX    TMP DP  RH WIND       PRES   REMARKS
ANTIGO         PTSUNNY   63  48  57 NE10G18   30.09S
SHAWANO        CLOUDY    68  47  47 N8G17     30.07R
OCONTO         CLOUDY    65  49  54 N12       30.05S
STURGEON BAY   MOSUNNY   63  48  59 N16       30.07S
GREEN BAY      PTSUNNY   69  49  48 N9        30.05F
MANITOWOC      NOT AVBL
APPLETON       PTSUNNY   64  45  48 NW12G18   30.07S
CLINTONVILLE   CLOUDY    68  45  42 NW8       30.06S
OSHKOSH        PTSUNNY   67  47  48 N16       30.06S
$$

WIZ032>034-041-042-053>061-072000-
SOUTHWEST WISCONSIN

CITY           SKY/WX    TMP DP  RH WIND       PRES   REMARKS
LA CROSSE      PTSUNNY   69  46  43 NE10      30.11F
SPARTA         CLOUDY    64  44  47 N8        30.12S
VIROQUA        CLOUDY    64  48  55 N14       30.11F
BOSCOBEL       CLOUDY    69  49  48 N6        30.09S
PRAIRIE DU CHI PTSUNNY   66  45  45 NW9G16    30.09S
PLATTEVILLE    CLOUDY    67  53  61 N10       30.08R
$$

WIZ056-057-062-063-064-067-068-072000-
SOUTH CENTRAL WISCONSIN

CITY           SKY/WX    TMP DP  RH WIND       PRES   REMARKS
REEDSBURG      NOT AVBL
BARABOO/DELLS  PTSUNNY   67  46  46 NW8       30.08S
LONE ROCK      NOT AVBL
MINERAL POINT  CLOUDY    68  52  56 N10       30.08R
MADISON        PTSUNNY   68  52  56 N12G18    30.06R
MIDDLETON      NOT AVBL
WATERTOWN      CLOUDY    65  51  59 N8G16     30.05S
MONROE         PTSUNNY   68  54  60 N13G18    30.05S
JANESVILLE     PTSUNNY   70  52  52 N13       30.04
$$

WIZ051-052-058>065-066-070>072-072000-
SOUTHEAST WISCONSIN

CITY           SKY/WX    TMP DP  RH WIND       PRES   REMARKS
MILWAUKEE      MOSUNNY   65  49  56 N15       30.04R
WAUKESHA       PTSUNNY   66  48  52 N12G18    30.05S
MILWAUKEE/TIMM CLOUDY    66  48  52 N8        30.05R
RACINE         SUNNY     66  47  50 N20G26    30.06R
BURLINGTON     NOT AVBL
KENOSHA        MOSUNNY   68  52  56 NE14G22   30.04R
FOND DU LAC    PTSUNNY   67  49  52 N12       30.06S
SHEBOYGAN      CLOUDY    65  49  56 N10       30.04S
WEST BEND      CLOUDY    64  46  52 N10       30.05R
JUNEAU         PTSUNNY   65  51  60 N13G22    30.07S
$$

LSZ147-162-072000-
LAKE SUPERIOR

STATION/POSITION TIME  TEMP    WIND        PRES    WAVE
                       AIR SEA DIR/SP/G            HT/PER
                 (UTC) (F)     (DEG/KT/KT) (MB)    (FT/S)
W MID LAKE BUOY  1750   46 39  230/  8/ 10 1020.0R   1
DEVILS ISLAND    1800   60     220/  5/  7 1020.3F
PORT WING        1840   66     310/  2/  3 1020.3F
SAXON HARBOR     1800   62        CALM     1020.7
$$

LMZ867-665-643>646-072000-
LAKE MICHIGAN

STATION/POSITION TIME  TEMP    WIND        PRES    WAVE
                       AIR SEA DIR/SP/G            HT/PER
                 (UTC) (F)     (DEG/KT/KT) (MB)    (FT/S)
CHAMBERS ISLAND  1800   63     330/ 11/ 15 1017.6R
S GREEN BAY BUOY 1830   64 68   10/ 12/ 16 1018.7
N MID LAKE BUOY  1750   55 52  310/ 12/ 12 1016.5R   2/ 3
NORTHPORT PIER   1800   60     340/ 16/ 23 1017.3R
SISTER BAY       1814   63     360/ 20/ 24   N/A
KEWAUNEE LAKESHO 1800   63     350/ 10/ 14 1016.8R
SHEBOYGAN LAKESH 1800   58      30/ 11/ 12 1017.7R
PORT WASHINGTON  1840   61      50/ 12/ 15 1017.9R
ATWATER BUOY     1800   60 59   30/ 14/ 17 1018.2S
MILWAUKEE LAKESH 1800   59      30/ 14/ 15   N/A
KENOSHA   LAKESH 1800   59      20/ 15/ 18 1016.6S
$$

TC  - TEMPERATURE IN CELSIUS
VSB - VISIBILITY IN STATUTE MILES
WCI - WIND CHILL INDEX
HX  - HEAT INDEX



USA.gov is the U.S. government's official web portal to all federal, state and local government web resources and services.